NORTHEAST SUFFOLK  -  Rip Current Statement Rip Current Statement        NORTHERN NASSAU  -  Rip Current Statement Rip Current Statement        NORTHERN QUEENS  -  Rip Current Statement Rip Current Statement        NORTHWEST SUFFOLK  -  Rip Current Statement Rip Current Statement        SOUTHEAST SUFFOLK  -  Rip Current Statement Rip Current Statement        SOUTHERN NASSAU  -  Rip Current Statement Rip Current Statement        SOUTHERN QUEENS  -  Rip Current Statement Rip Current Statement        SOUTHWEST SUFFOLK  -  Rip Current Statement Rip Current Statement      

Active alerts

Northern Queens
  Details for Northern Queens Rip Current Statement
Southern Queens
  Details for Southern Queens Rip Current Statement
Northern Nassau
  Details for Northern Nassau Rip Current Statement
Southern Nassau
  Details for Southern Nassau Rip Current Statement
Northwest Suffolk
  Details for Northwest Suffolk Rip Current Statement
Southwest Suffolk
  Details for Southwest Suffolk Rip Current Statement
Northeast Suffolk
  Details for Northeast Suffolk Rip Current Statement
Southeast Suffolk
  Details for Southeast Suffolk Rip Current Statement


WXM80 ListenWXM80 Stop

You find our weather info also at:

UK Metoffice

WeatherCloud

Weather Underground

Northeastern Weather Network

AWEKAS

Citizen Weather Observer Program (CWOP)

HAMweather, WeatherForYou, PWS Weather


Weather Underground History page Text

Daily Summary for February 19, 2017 Units:  English    Metric   Both
« Previous Day
Next Day »
Daily Weekly Monthly Yearly Custom
  High: Low: Average:
Temperature: 63.6 °F 45.5 °F 56.2 °F
Dew Point: 43.2 °F 32.6 °F 37.4 °F
Humidity: 65 % 40 % 50 %
Wind Speed: 8.0 mph 0.0 mph 3.4 mph
Wind Gust: 15.0 mph - -
Wind:- - WSW
Pressure: 29.94 in 29.60 in -
Precipitation: 0.00 in    
Historical Graphs
 
 
Tabular Data for February 19, 2017
Time Temperature Dew Point Pressure Wind Wind Speed Wind Gust Humidity Rainfall Rate (Hourly)
00:03 56.1 °F 37.2 °F 29.60 in WSW 6.5 mph 6.5 mph 49 % 0.00 in
00:08 56.2 °F 37.3 °F 29.60 in SW 3.9 mph 9.2 mph 49 % 0.00 in
00:13 56.3 °F 37.4 °F 29.61 in WSW 5.8 mph 8.1 mph 49 % 0.00 in
00:18 56.3 °F 36.8 °F 29.61 in SW 6.2 mph 9.2 mph 48 % 0.00 in
00:23 56.5 °F 37.0 °F 29.61 in SW 4.5 mph 6.9 mph 48 % 0.00 in
00:28 56.6 °F 37.1 °F 29.61 in SW 5.2 mph 8.0 mph 48 % 0.00 in
00:33 56.6 °F 37.1 °F 29.61 in SW 6.0 mph 8.1 mph 48 % 0.00 in
00:39 56.7 °F 37.2 °F 29.61 in South 4.1 mph 7.0 mph 48 % 0.00 in
00:44 56.7 °F 37.2 °F 29.61 in WSW 4.6 mph 9.2 mph 48 % 0.00 in
00:49 56.7 °F 37.2 °F 29.60 in SSW 4.2 mph 6.0 mph 48 % 0.00 in
00:54 56.7 °F 37.2 °F 29.61 in SW 4.6 mph 8.1 mph 48 % 0.00 in
00:59 56.6 °F 37.1 °F 29.61 in SSW 6.4 mph 8.1 mph 48 % 0.00 in
01:04 56.6 °F 37.1 °F 29.61 in WSW 4.8 mph 11.5 mph 48 % 0.00 in
01:09 56.7 °F 37.2 °F 29.61 in WSW 5.3 mph 10.4 mph 48 % 0.00 in
01:14 56.8 °F 37.3 °F 29.61 in WSW 5.4 mph 11.5 mph 48 % 0.00 in
01:19 57.0 °F 37.0 °F 29.62 in WSW 4.9 mph 9.2 mph 47 % 0.00 in
01:24 57.2 °F 37.1 °F 29.62 in West 6.3 mph 9.2 mph 47 % 0.00 in
01:29 57.4 °F 37.3 °F 29.62 in WNW 5.2 mph 10.4 mph 47 % 0.00 in
01:34 57.5 °F 37.4 °F 29.62 in WSW 3.9 mph 13.8 mph 47 % 0.00 in
01:39 57.4 °F 37.3 °F 29.62 in WSW 3.9 mph 10.4 mph 47 % 0.00 in
01:44 57.4 °F 37.3 °F 29.63 in SW 1.5 mph 6.0 mph 47 % 0.00 in
01:49 57.3 °F 37.2 °F 29.63 in West 2.1 mph 11.5 mph 47 % 0.00 in
02:04 56.7 °F 37.2 °F 29.64 in WSW 3.4 mph 6.9 mph 48 % 0.00 in
02:09 56.5 °F 37.0 °F 29.64 in WSW 5.7 mph 9.2 mph 48 % 0.00 in
02:14 56.3 °F 36.8 °F 29.63 in WSW 0.6 mph 4.6 mph 48 % 0.00 in
02:19 56.2 °F 37.3 °F 29.63 in SSW 4.4 mph 8.1 mph 49 % 0.00 in
02:24 56.2 °F 37.3 °F 29.63 in WSW 3.0 mph 6.9 mph 49 % 0.00 in
02:30 56.2 °F 37.3 °F 29.63 in SSW 4.5 mph 8.1 mph 49 % 0.00 in
02:35 56.2 °F 37.3 °F 29.64 in WSW 3.3 mph 4.0 mph 49 % 0.00 in
02:40 56.0 °F 37.1 °F 29.63 in WSW 3.8 mph 6.9 mph 49 % 0.00 in
02:45 55.7 °F 36.8 °F 29.64 in WSW 3.9 mph 6.9 mph 49 % 0.00 in
02:50 55.5 °F 37.1 °F 29.64 in SW 3.4 mph 4.6 mph 50 % 0.00 in
02:55 55.1 °F 37.3 °F 29.64 in SW 4.3 mph 8.1 mph 51 % 0.00 in
03:00 54.9 °F 37.1 °F 29.64 in SW 2.5 mph 3.5 mph 51 % 0.00 in
03:05 54.7 °F 36.9 °F 29.65 in SW 1.3 mph 5.8 mph 51 % 0.00 in
03:10 54.4 °F 37.1 °F 29.65 in WSW 2.6 mph 3.5 mph 52 % 0.00 in
03:15 54.1 °F 37.3 °F 29.65 in WSW 2.7 mph 5.8 mph 53 % 0.00 in
03:20 53.9 °F 37.1 °F 29.65 in WSW 2.5 mph 6.0 mph 53 % 0.00 in
03:25 53.6 °F 36.9 °F 29.66 in SW 3.1 mph 4.0 mph 53 % 0.00 in
03:30 53.4 °F 37.2 °F 29.66 in WSW 3.0 mph 4.6 mph 54 % 0.00 in
03:35 53.2 °F 37.0 °F 29.66 in SW 4.3 mph 6.9 mph 54 % 0.00 in
03:40 53.2 °F 37.0 °F 29.66 in WSW 4.3 mph 6.9 mph 54 % 0.00 in
03:45 53.2 °F 37.0 °F 29.66 in WSW 3.2 mph 6.9 mph 54 % 0.00 in
03:50 53.2 °F 37.0 °F 29.67 in SW 3.7 mph 6.0 mph 54 % 0.00 in
03:55 53.3 °F 37.1 °F 29.67 in WSW 2.7 mph 4.0 mph 54 % 0.00 in
04:00 53.4 °F 37.2 °F 29.67 in SSW 4.5 mph 6.0 mph 54 % 0.00 in
04:05 53.4 °F 37.2 °F 29.67 in WNW 2.9 mph 4.6 mph 54 % 0.00 in
04:10 53.5 °F 37.3 °F 29.67 in SW 4.0 mph 5.8 mph 54 % 0.00 in
04:15 53.5 °F 37.3 °F 29.67 in WSW 1.7 mph 5.0 mph 54 % 0.00 in
04:21 53.6 °F 37.3 °F 29.67 in SSW 3.1 mph 4.6 mph 54 % 0.00 in
04:26 53.5 °F 37.3 °F 29.67 in SW 2.9 mph 4.6 mph 54 % 0.00 in
04:31 53.5 °F 37.3 °F 29.67 in SSW 3.1 mph 6.9 mph 54 % 0.00 in
04:36 53.4 °F 37.2 °F 29.67 in SW 2.9 mph 5.0 mph 54 % 0.00 in
04:41 53.3 °F 37.1 °F 29.67 in SW 2.4 mph 4.6 mph 54 % 0.00 in
04:46 53.1 °F 36.9 °F 29.68 in SW 1.5 mph 3.5 mph 54 % 0.00 in
04:51 52.9 °F 37.2 °F 29.68 in SW 2.3 mph 3.5 mph 55 % 0.00 in
04:56 52.7 °F 37.0 °F 29.68 in SW 2.1 mph 4.0 mph 55 % 0.00 in
05:01 52.6 °F 36.9 °F 29.68 in SW 2.9 mph 5.8 mph 55 % 0.00 in
05:06 52.4 °F 37.2 °F 29.68 in SW 2.9 mph 4.0 mph 56 % 0.00 in
05:11 52.3 °F 37.1 °F 29.69 in SSW 2.8 mph 4.6 mph 56 % 0.00 in
05:16 52.3 °F 37.1 °F 29.68 in WSW 3.5 mph 4.6 mph 56 % 0.00 in
05:21 52.3 °F 37.1 °F 29.69 in WSW 2.1 mph 5.0 mph 56 % 0.00 in
05:26 52.3 °F 37.5 °F 29.69 in WSW 3.1 mph 3.5 mph 57 % 0.00 in
05:31 52.3 °F 37.5 °F 29.69 in WSW 3.3 mph 6.0 mph 57 % 0.00 in
05:36 52.3 °F 37.5 °F 29.69 in SW 2.7 mph 5.8 mph 57 % 0.00 in
05:41 52.3 °F 37.5 °F 29.69 in WSW 2.4 mph 3.5 mph 57 % 0.00 in
05:46 52.4 °F 37.6 °F 29.69 in SSW 3.6 mph 8.1 mph 57 % 0.00 in
05:51 52.4 °F 37.6 °F 29.69 in West 2.8 mph 9.0 mph 57 % 0.00 in
05:56 52.4 °F 37.6 °F 29.69 in SSW 3.8 mph 5.0 mph 57 % 0.00 in
06:01 52.4 °F 37.6 °F 29.69 in SSW 2.2 mph 8.1 mph 57 % 0.00 in
06:06 52.5 °F 37.7 °F 29.69 in SW 4.1 mph 5.8 mph 57 % 0.00 in
06:11 52.5 °F 37.7 °F 29.70 in SW 2.2 mph 3.5 mph 57 % 0.00 in
06:17 52.5 °F 37.7 °F 29.70 in SW 2.7 mph 5.8 mph 57 % 0.00 in
06:22 52.5 °F 38.1 °F 29.70 in WSW 4.7 mph 6.9 mph 58 % 0.00 in
06:27 52.6 °F 38.2 °F 29.70 in WNW 2.8 mph 4.6 mph 58 % 0.00 in
06:32 52.8 °F 38.4 °F 29.70 in WSW 4.1 mph 5.8 mph 58 % 0.00 in
06:37 52.9 °F 38.5 °F 29.70 in WSW 4.3 mph 5.8 mph 58 % 0.00 in
06:42 53.1 °F 38.3 °F 29.70 in WSW 3.8 mph 10.4 mph 57 % 0.00 in
06:47 53.3 °F 38.4 °F 29.70 in WSW 4.7 mph 8.1 mph 57 % 0.00 in
06:52 53.5 °F 38.6 °F 29.70 in WSW 4.0 mph 7.0 mph 57 % 0.00 in
06:57 53.7 °F 38.8 °F 29.71 in West 4.9 mph 9.2 mph 57 % 0.00 in
07:02 53.8 °F 38.9 °F 29.71 in SW 3.5 mph 6.0 mph 57 % 0.00 in
07:07 53.9 °F 39.0 °F 29.71 in WSW 4.3 mph 6.9 mph 57 % 0.00 in
07:12 54.0 °F 39.1 °F 29.72 in WSW 3.6 mph 4.6 mph 57 % 0.00 in
07:17 54.0 °F 39.1 °F 29.72 in SW 3.9 mph 4.6 mph 57 % 0.00 in
07:22 53.9 °F 39.0 °F 29.72 in WSW 4.3 mph 8.1 mph 57 % 0.00 in
07:27 53.8 °F 38.9 °F 29.72 in SW 6.7 mph 11.5 mph 57 % 0.00 in
07:32 53.7 °F 38.8 °F 29.72 in SW 3.3 mph 9.2 mph 57 % 0.00 in
07:37 53.7 °F 39.3 °F 29.73 in WSW 4.0 mph 7.0 mph 58 % 0.00 in
07:42 53.7 °F 39.3 °F 29.73 in West 2.3 mph 3.5 mph 58 % 0.00 in
07:47 53.8 °F 39.4 °F 29.74 in WSW 2.7 mph 3.5 mph 58 % 0.00 in
07:52 54.0 °F 39.5 °F 29.73 in WSW 4.1 mph 7.0 mph 58 % 0.00 in
07:57 54.1 °F 39.6 °F 29.74 in SW 5.0 mph 8.1 mph 58 % 0.00 in
08:02 54.2 °F 39.7 °F 29.74 in SW 2.9 mph 4.6 mph 58 % 0.00 in
08:08 54.2 °F 39.7 °F 29.74 in SW 1.9 mph 6.9 mph 58 % 0.00 in
08:13 54.4 °F 39.9 °F 29.75 in SSW 0.9 mph 3.5 mph 58 % 0.00 in
08:18 54.4 °F 39.9 °F 29.75 in SW 2.9 mph 3.5 mph 58 % 0.00 in
08:23 54.5 °F 39.6 °F 29.75 in WSW 3.5 mph 5.8 mph 57 % 0.00 in
08:28 54.5 °F 40.0 °F 29.75 in WSW 3.4 mph 5.0 mph 58 % 0.00 in
08:33 54.6 °F 40.1 °F 29.75 in WSW 2.0 mph 2.3 mph 58 % 0.00 in
08:38 54.7 °F 39.8 °F 29.76 in WSW 3.3 mph 8.1 mph 57 % 0.00 in
08:43 54.8 °F 39.8 °F 29.76 in WSW 3.4 mph 8.1 mph 57 % 0.00 in
08:48 55.0 °F 40.0 °F 29.76 in SW 4.2 mph 4.6 mph 57 % 0.00 in
08:58 55.4 °F 40.4 °F 29.76 in WSW 4.5 mph 8.1 mph 57 % 0.00 in
09:03 55.7 °F 40.7 °F 29.76 in West 6.0 mph 12.0 mph 57 % 0.00 in
09:08 55.9 °F 40.4 °F 29.76 in WSW 5.0 mph 8.0 mph 56 % 0.00 in
09:13 56.0 °F 40.5 °F 29.76 in WSW 5.0 mph 8.0 mph 56 % 0.00 in
09:18 56.3 °F 41.3 °F 29.76 in WSW 3.0 mph 8.0 mph 57 % 0.00 in
09:23 56.8 °F 40.8 °F 29.76 in WSW 6.0 mph 10.0 mph 55 % 0.00 in
09:28 57.2 °F 41.2 °F 29.76 in WSW 5.0 mph 8.0 mph 55 % 0.00 in
09:33 57.6 °F 41.0 °F 29.76 in WSW 7.0 mph 13.0 mph 54 % 0.00 in
09:38 58.0 °F 41.4 °F 29.76 in WSW 8.0 mph 11.5 mph 54 % 0.00 in
09:43 58.4 °F 41.8 °F 29.76 in West 5.0 mph 12.0 mph 54 % 0.00 in
09:48 58.9 °F 41.8 °F 29.76 in West 5.0 mph 13.0 mph 53 % 0.00 in
09:53 59.3 °F 42.2 °F 29.77 in WSW 3.0 mph 10.0 mph 53 % 0.00 in
09:58 59.7 °F 42.0 °F 29.77 in SSW 5.4 mph 9.2 mph 52 % 0.00 in
10:03 59.7 °F 42.0 °F 29.77 in WSW 5.0 mph 12.0 mph 52 % 0.00 in
10:08 59.9 °F 42.2 °F 29.77 in WSW 6.0 mph 8.0 mph 52 % 0.00 in
10:13 60.1 °F 41.9 °F 29.77 in SW 2.5 mph 5.8 mph 51 % 0.00 in
10:18 60.3 °F 42.6 °F 29.77 in WSW 6.0 mph 12.0 mph 52 % 0.00 in
10:23 60.6 °F 42.3 °F 29.77 in WSW 3.0 mph 13.0 mph 51 % 0.00 in
10:28 60.7 °F 42.5 °F 29.76 in WSW 3.0 mph 8.0 mph 51 % 0.00 in
10:33 60.9 °F 43.2 °F 29.77 in West 2.0 mph 9.0 mph 52 % 0.00 in
10:38 61.2 °F 42.4 °F 29.77 in West 3.0 mph 12.0 mph 50 % 0.00 in
10:39 61.2 °F 41.9 °F 29.77 in WSW 6.6 mph 11.5 mph 49 % 0.00 in
10:44 61.4 °F 43.1 °F 29.76 in WSW 2.3 mph 6.9 mph 51 % 0.00 in
10:49 61.8 °F 42.4 °F 29.77 in SW 4.4 mph 8.1 mph 49 % 0.00 in
10:54 62.0 °F 42.6 °F 29.77 in WSW 1.9 mph 9.2 mph 49 % 0.00 in
10:59 61.7 °F 41.8 °F 29.77 in SW 6.9 mph 9.2 mph 48 % 0.00 in
11:04 61.3 °F 41.4 °F 29.77 in WSW 4.0 mph 6.9 mph 48 % 0.00 in
11:09 61.0 °F 41.7 °F 29.77 in WSW 4.3 mph 8.1 mph 49 % 0.00 in
11:14 60.8 °F 41.5 °F 29.77 in WSW 5.6 mph 8.1 mph 49 % 0.00 in
11:19 60.5 °F 41.2 °F 29.77 in WNW 3.5 mph 6.9 mph 49 % 0.00 in
11:24 60.6 °F 41.8 °F 29.77 in WSW 4.7 mph 9.0 mph 50 % 0.00 in
11:29 60.7 °F 41.4 °F 29.77 in WSW 3.0 mph 9.2 mph 49 % 0.00 in
11:34 60.6 °F 41.3 °F 29.77 in West 3.9 mph 6.9 mph 49 % 0.00 in
11:39 60.5 °F 41.2 °F 29.77 in West 1.7 mph 3.5 mph 49 % 0.00 in
11:44 60.6 °F 41.3 °F 29.77 in SW 2.9 mph 5.0 mph 49 % 0.00 in
11:49 60.6 °F 41.3 °F 29.76 in SW 4.7 mph 10.4 mph 49 % 0.00 in
11:55 60.7 °F 41.4 °F 29.76 in SW 2.0 mph 4.6 mph 49 % 0.00 in
12:00 60.9 °F 40.5 °F 29.76 in West 5.1 mph 8.1 mph 47 % 0.00 in
12:05 60.9 °F 40.5 °F 29.76 in WSW 3.1 mph 4.6 mph 47 % 0.00 in
12:10 61.0 °F 40.6 °F 29.75 in West 6.5 mph 12.7 mph 47 % 0.00 in
12:15 61.1 °F 40.7 °F 29.75 in WNW 2.4 mph 7.0 mph 47 % 0.00 in
12:20 61.1 °F 40.7 °F 29.75 in WNW 0.7 mph 3.5 mph 47 % 0.00 in
12:25 60.9 °F 40.5 °F 29.75 in WNW 4.7 mph 9.2 mph 47 % 0.00 in
12:30 60.8 °F 41.0 °F 29.75 in SW 3.1 mph 8.0 mph 48 % 0.00 in
12:35 61.0 °F 41.2 °F 29.75 in SW 5.8 mph 12.0 mph 48 % 0.00 in
12:40 61.4 °F 41.0 °F 29.75 in WSW 3.1 mph 8.1 mph 47 % 0.00 in
12:45 61.8 °F 40.8 °F 29.75 in SW 5.2 mph 10.4 mph 46 % 0.00 in
12:50 62.0 °F 41.0 °F 29.75 in West 2.8 mph 8.1 mph 46 % 0.00 in
12:55 62.2 °F 41.2 °F 29.75 in West 4.0 mph 6.0 mph 46 % 0.00 in
13:00 62.5 °F 40.9 °F 29.75 in SW 3.9 mph 9.0 mph 45 % 0.00 in
13:05 62.8 °F 40.5 °F 29.75 in WSW 5.5 mph 9.0 mph 44 % 0.00 in
13:10 63.0 °F 40.7 °F 29.75 in WSW 5.3 mph 11.5 mph 44 % 0.00 in
13:15 63.2 °F 40.3 °F 29.75 in SSW 4.5 mph 8.1 mph 43 % 0.00 in
13:20 63.4 °F 39.9 °F 29.75 in West 6.4 mph 11.5 mph 42 % 0.00 in
13:25 63.3 °F 39.8 °F 29.75 in West 2.0 mph 8.1 mph 42 % 0.00 in
13:30 63.0 °F 39.5 °F 29.75 in WNW 5.3 mph 8.1 mph 42 % 0.00 in
13:35 62.9 °F 40.0 °F 29.75 in WNW 4.9 mph 6.9 mph 43 % 0.00 in
13:40 62.9 °F 40.0 °F 29.75 in West 4.8 mph 9.2 mph 43 % 0.00 in
13:45 63.0 °F 40.1 °F 29.75 in West 4.0 mph 8.1 mph 43 % 0.00 in
13:50 63.2 °F 39.1 °F 29.75 in West 7.8 mph 15.0 mph 41 % 0.00 in
13:56 63.3 °F 39.2 °F 29.75 in WNW 7.5 mph 15.0 mph 41 % 0.00 in
14:01 63.4 °F 39.3 °F 29.75 in WNW 6.3 mph 10.4 mph 41 % 0.00 in
14:06 63.4 °F 39.3 °F 29.75 in West 4.6 mph 10.0 mph 41 % 0.00 in
14:11 63.6 °F 39.5 °F 29.74 in West 5.3 mph 8.1 mph 41 % 0.00 in
14:16 63.6 °F 39.5 °F 29.75 in WNW 5.8 mph 9.2 mph 41 % 0.00 in
14:21 63.6 °F 39.5 °F 29.75 in West 7.0 mph 11.5 mph 41 % 0.00 in
14:26 63.5 °F 38.7 °F 29.75 in West 5.6 mph 10.4 mph 40 % 0.00 in
14:31 63.3 °F 38.6 °F 29.75 in WNW 5.7 mph 12.7 mph 40 % 0.00 in
14:36 63.3 °F 39.2 °F 29.75 in NW 7.4 mph 11.5 mph 41 % 0.00 in
14:41 63.2 °F 39.1 °F 29.75 in WNW 6.1 mph 9.2 mph 41 % 0.00 in
14:46 63.1 °F 39.0 °F 29.75 in NW 2.7 mph 6.9 mph 41 % 0.00 in
14:51 63.0 °F 38.3 °F 29.75 in West 6.1 mph 8.1 mph 40 % 0.00 in
14:56 62.7 °F 38.6 °F 29.75 in WSW 5.6 mph 11.5 mph 41 % 0.00 in
15:01 62.6 °F 39.2 °F 29.75 in WSW 4.0 mph 5.8 mph 42 % 0.00 in
15:06 62.5 °F 38.5 °F 29.76 in West 5.4 mph 10.0 mph 41 % 0.00 in
15:11 62.5 °F 38.5 °F 29.76 in WNW 1.0 mph 4.6 mph 41 % 0.00 in
15:16 62.5 °F 39.1 °F 29.76 in WSW 2.7 mph 3.5 mph 42 % 0.00 in
15:26 62.4 °F 38.4 °F 29.76 in NW 2.5 mph 4.6 mph 41 % 0.00 in
15:31 62.3 °F 38.3 °F 29.76 in WNW 2.4 mph 9.2 mph 41 % 0.00 in
15:36 62.2 °F 37.6 °F 29.77 in WNW 4.9 mph 6.9 mph 40 % 0.00 in
15:46 61.9 °F 37.9 °F 29.77 in West 1.9 mph 3.5 mph 41 % 0.00 in
15:51 61.8 °F 37.8 °F 29.77 in WSW 6.1 mph 11.5 mph 41 % 0.00 in
15:57 61.7 °F 37.7 °F 29.77 in West 6.8 mph 11.5 mph 41 % 0.00 in
16:02 61.6 °F 37.7 °F 29.77 in NW 3.4 mph 5.0 mph 41 % 0.00 in
16:07 61.5 °F 37.6 °F 29.77 in WNW 3.7 mph 5.8 mph 41 % 0.00 in
16:12 61.4 °F 37.5 °F 29.77 in SW 3.1 mph 4.6 mph 41 % 0.00 in
16:17 61.3 °F 37.4 °F 29.78 in NW 3.6 mph 5.0 mph 41 % 0.00 in
16:22 61.2 °F 37.9 °F 29.78 in SW 2.1 mph 9.0 mph 42 % 0.00 in
16:27 61.1 °F 37.8 °F 29.78 in WSW 0.1 mph 3.5 mph 42 % 0.00 in
16:32 60.9 °F 37.0 °F 29.78 in West 3.2 mph 5.8 mph 41 % 0.00 in
16:37 60.8 °F 37.5 °F 29.78 in WSW 4.4 mph 11.5 mph 42 % 0.00 in
16:42 60.7 °F 37.5 °F 29.79 in WSW 4.2 mph 8.1 mph 42 % 0.00 in
16:47 60.5 °F 37.3 °F 29.79 in WSW 5.0 mph 6.9 mph 42 % 0.00 in
16:52 60.3 °F 37.1 °F 29.79 in WSW 3.8 mph 10.4 mph 42 % 0.00 in
16:57 60.0 °F 37.4 °F 29.79 in West 3.7 mph 6.9 mph 43 % 0.00 in
17:02 59.8 °F 37.2 °F 29.80 in WSW 1.3 mph 6.9 mph 43 % 0.00 in
17:07 59.6 °F 37.1 °F 29.80 in WSW 3.9 mph 7.0 mph 43 % 0.00 in
17:12 59.4 °F 36.9 °F 29.80 in SW 4.3 mph 9.2 mph 43 % 0.00 in
17:17 59.3 °F 36.8 °F 29.80 in West 0.9 mph 3.5 mph 43 % 0.00 in
17:22 59.1 °F 36.6 °F 29.81 in West 4.6 mph 6.9 mph 43 % 0.00 in
17:27 58.9 °F 36.4 °F 29.81 in West 5.8 mph 9.2 mph 43 % 0.00 in
17:32 58.7 °F 36.2 °F 29.81 in West 1.6 mph 8.1 mph 43 % 0.00 in
17:37 58.6 °F 35.6 °F 29.82 in West 3.5 mph 7.0 mph 42 % 0.00 in
17:42 58.4 °F 35.4 °F 29.82 in WNW 4.6 mph 9.2 mph 42 % 0.00 in
17:47 58.2 °F 35.2 °F 29.82 in West 4.8 mph 10.4 mph 42 % 0.00 in
17:52 58.0 °F 35.0 °F 29.82 in WNW 3.4 mph 5.8 mph 42 % 0.00 in
17:57 57.9 °F 34.9 °F 29.83 in WSW 3.0 mph 5.8 mph 42 % 0.00 in
18:03 57.7 °F 34.7 °F 29.83 in WSW 2.6 mph 8.1 mph 42 % 0.00 in
18:08 57.6 °F 34.7 °F 29.83 in WNW 0.8 mph 2.3 mph 42 % 0.00 in
18:13 57.5 °F 34.0 °F 29.83 in West 0.1 mph 3.5 mph 41 % 0.00 in
18:18 57.3 °F 34.4 °F 29.83 in West 1.3 mph 2.3 mph 42 % 0.00 in
18:23 57.0 °F 34.1 °F 29.83 in WSW 1.5 mph 3.0 mph 42 % 0.00 in
18:28 56.9 °F 34.0 °F 29.83 in West 2.2 mph 4.0 mph 42 % 0.00 in
18:33 56.7 °F 33.2 °F 29.84 in WNW 3.4 mph 4.6 mph 41 % 0.00 in
18:38 56.6 °F 33.8 °F 29.84 in WNW 1.6 mph 3.0 mph 42 % 0.00 in
18:43 56.4 °F 33.6 °F 29.85 in West 5.3 mph 6.9 mph 42 % 0.00 in
18:48 56.3 °F 33.5 °F 29.84 in WNW 4.9 mph 6.9 mph 42 % 0.00 in
18:53 56.2 °F 33.4 °F 29.84 in West 3.2 mph 6.0 mph 42 % 0.00 in
18:58 56.2 °F 33.4 °F 29.85 in WNW 3.8 mph 9.2 mph 42 % 0.00 in
19:03 56.1 °F 33.3 °F 29.85 in West 3.6 mph 9.2 mph 42 % 0.00 in
19:08 56.0 °F 33.2 °F 29.85 in WNW 3.0 mph 7.0 mph 42 % 0.00 in
19:13 55.9 °F 33.7 °F 29.85 in WNW 3.0 mph 7.0 mph 43 % 0.00 in
19:18 55.8 °F 33.6 °F 29.85 in WNW 3.0 mph 8.0 mph 43 % 0.00 in
19:23 55.7 °F 33.5 °F 29.85 in WNW 2.5 mph 8.1 mph 43 % 0.00 in
19:28 55.6 °F 33.4 °F 29.85 in WNW 2.0 mph 4.0 mph 43 % 0.00 in
19:33 55.4 °F 33.3 °F 29.85 in West 2.0 mph 5.0 mph 43 % 0.00 in
19:38 55.3 °F 33.2 °F 29.85 in WNW 2.0 mph 5.0 mph 43 % 0.00 in
19:43 55.1 °F 33.0 °F 29.85 in WNW 3.0 mph 6.0 mph 43 % 0.00 in
19:48 55.0 °F 32.9 °F 29.86 in WNW 3.0 mph 9.0 mph 43 % 0.00 in
19:53 54.9 °F 32.8 °F 29.86 in WNW 1.0 mph 6.0 mph 43 % 0.00 in
19:58 54.8 °F 32.7 °F 29.86 in WNW 2.2 mph 5.8 mph 43 % 0.00 in
20:03 54.7 °F 33.2 °F 29.86 in West 2.7 mph 4.0 mph 44 % 0.00 in
20:08 54.4 °F 32.9 °F 29.87 in WNW 1.5 mph 5.8 mph 44 % 0.00 in
20:13 54.3 °F 32.8 °F 29.87 in West 2.2 mph 3.5 mph 44 % 0.00 in
20:18 54.1 °F 32.6 °F 29.88 in WSW 2.4 mph 5.0 mph 44 % 0.00 in
20:23 53.9 °F 33.0 °F 29.88 in WNW 2.2 mph 4.6 mph 45 % 0.00 in
20:29 53.7 °F 32.8 °F 29.88 in West 2.7 mph 4.6 mph 45 % 0.00 in
20:34 53.5 °F 32.7 °F 29.89 in West 2.7 mph 5.0 mph 45 % 0.00 in
20:39 53.3 °F 33.0 °F 29.89 in West 1.7 mph 4.6 mph 46 % 0.00 in
20:44 53.1 °F 32.8 °F 29.89 in West 1.5 mph 3.5 mph 46 % 0.00 in
20:49 53.0 °F 32.8 °F 29.90 in West 0.9 mph 2.3 mph 46 % 0.00 in
20:54 52.8 °F 32.6 °F 29.90 in WNW 1.2 mph 1.2 mph 46 % 0.00 in
20:59 52.6 °F 32.9 °F 29.90 in West 1.9 mph 4.6 mph 47 % 0.00 in
21:04 52.4 °F 32.7 °F 29.91 in WNW 0.7 mph 2.3 mph 47 % 0.00 in
21:09 52.2 °F 33.1 °F 29.91 in WNW 1.4 mph 2.3 mph 48 % 0.00 in
21:14 51.8 °F 33.2 °F 29.91 in SW 1.1 mph 2.3 mph 49 % 0.00 in
21:19 51.4 °F 33.4 °F 29.91 in SW 0.8 mph 1.2 mph 50 % 0.00 in
21:24 51.1 °F 33.1 °F 29.91 in Calm     50 % 0.00 in
21:29 50.8 °F 33.3 °F 29.91 in Calm   1.2 mph 51 % 0.00 in
21:34 50.5 °F 33.0 °F 29.91 in SW 0.7 mph 2.3 mph 51 % 0.00 in
21:39 50.1 °F 33.1 °F 29.91 in SW 0.5 mph 2.3 mph 52 % 0.00 in
21:44 49.7 °F 33.2 °F 29.91 in SW 1.3 mph 3.5 mph 53 % 0.00 in
21:49 49.4 °F 33.0 °F 29.91 in Calm     53 % 0.00 in
21:54 49.1 °F 33.2 °F 29.91 in SW 0.7 mph 2.0 mph 54 % 0.00 in
21:59 48.8 °F 32.9 °F 29.91 in SW 0.3 mph 2.3 mph 54 % 0.00 in
22:04 48.5 °F 33.1 °F 29.91 in WSW 1.8 mph 3.5 mph 55 % 0.00 in
22:09 48.2 °F 33.2 °F 29.91 in WSW 1.3 mph 2.3 mph 56 % 0.00 in
22:14 48.0 °F 33.0 °F 29.91 in SW 2.4 mph 3.5 mph 56 % 0.00 in
22:20 47.8 °F 33.3 °F 29.91 in SW 1.9 mph 3.5 mph 57 % 0.00 in
22:25 47.6 °F 33.1 °F 29.91 in SW 0.4 mph 2.3 mph 57 % 0.00 in
22:30 47.3 °F 33.3 °F 29.91 in WSW 1.2 mph 3.5 mph 58 % 0.00 in
22:35 47.1 °F 33.1 °F 29.92 in West 0.9 mph 3.0 mph 58 % 0.00 in
22:40 47.0 °F 33.0 °F 29.92 in West 1.9 mph 3.0 mph 58 % 0.00 in
22:45 47.0 °F 33.0 °F 29.92 in WSW 2.5 mph 3.5 mph 58 % 0.00 in
22:50 47.0 °F 33.0 °F 29.92 in WSW 0.6 mph 1.2 mph 58 % 0.00 in
22:55 47.0 °F 33.0 °F 29.92 in WSW 0.4 mph 2.3 mph 58 % 0.00 in
23:00 47.0 °F 33.4 °F 29.92 in ENE 1.5 mph 3.5 mph 59 % 0.00 in
23:05 46.9 °F 33.3 °F 29.92 in NNW 0.2 mph 3.5 mph 59 % 0.00 in
23:10 46.8 °F 33.6 °F 29.93 in NNW 0.6 mph 1.2 mph 60 % 0.00 in
23:15 46.6 °F 34.3 °F 29.93 in NW 2.1 mph 4.6 mph 62 % 0.00 in
23:20 46.5 °F 34.2 °F 29.93 in WNW 2.6 mph 3.5 mph 62 % 0.00 in
23:25 46.4 °F 34.5 °F 29.94 in WNW 2.5 mph 3.5 mph 63 % 0.00 in
23:30 46.3 °F 34.4 °F 29.94 in WNW 1.3 mph 3.5 mph 63 % 0.00 in
23:35 46.2 °F 34.3 °F 29.94 in WNW 0.7 mph 3.5 mph 63 % 0.00 in
23:40 46.1 °F 34.2 °F 29.94 in Calm   3.5 mph 63 % 0.00 in
23:45 46.0 °F 34.5 °F 29.94 in WNW 0.4 mph 2.0 mph 64 % 0.00 in
23:50 45.7 °F 34.2 °F 29.94 in Calm     64 % 0.00 in
23:55 45.5 °F 34.4 °F 29.94 in WNW 0.7 mph 2.3 mph 65 % 0.00 in
Crab Meadow Weather
Compliments of Weather Underground - 3 mb

Script developed by  Jim McMurry - jmcmurry@mwt.net Adapted for the template by  Wim van der Kuil - Leuven-Template.eu

Astronomy: February 1865 is the only month recorded in history not to have a full moon.